Year,Month,Day,Hour,Minute,Value (Times are PST for temperature in C)
2008,08,03,00,00,12.50
2008,08,03,00,01,12.50
2008,08,03,00,02,12.50
2008,08,03,00,03,12.50
2008,08,03,00,04,12.50
2008,08,03,00,05,12.50
2008,08,03,00,06,12.50
2008,08,03,00,07,12.40
2008,08,03,00,08,12.40
2008,08,03,00,09,12.40
2008,08,03,00,10,12.40
2008,08,03,00,11,12.40
2008,08,03,00,12,12.40
2008,08,03,00,13,12.40
2008,08,03,00,14,12.40
2008,08,03,00,15,12.40
2008,08,03,00,16,12.40
2008,08,03,00,17,12.40
2008,08,03,00,18,12.40
2008,08,03,00,19,12.40
2008,08,03,00,20,12.40
2008,08,03,00,21,12.30
2008,08,03,00,22,12.30
2008,08,03,00,23,12.30
2008,08,03,00,24,12.30
2008,08,03,00,25,12.30
2008,08,03,00,26,12.30
2008,08,03,00,27,12.30
2008,08,03,00,28,12.30
2008,08,03,00,29,12.30
2008,08,03,00,30,12.30
2008,08,03,00,31,12.30
2008,08,03,00,32,12.30
2008,08,03,00,33,12.30
2008,08,03,00,34,12.30
2008,08,03,00,35,12.30
2008,08,03,00,36,12.30
2008,08,03,00,37,12.30
2008,08,03,00,38,12.30
2008,08,03,00,39,12.30
2008,08,03,00,40,12.30
2008,08,03,00,41,12.30
2008,08,03,00,42,12.30
2008,08,03,00,43,12.20
2008,08,03,00,44,12.20
2008,08,03,00,45,12.20
2008,08,03,00,46,12.20
2008,08,03,00,47,12.10
2008,08,03,00,48,12.10
2008,08,03,00,49,12.10
2008,08,03,00,50,12.10
2008,08,03,00,51,12.10
2008,08,03,00,52,12.00
2008,08,03,00,53,12.00
2008,08,03,00,54,12.00
2008,08,03,00,55,12.00
2008,08,03,00,56,12.00
2008,08,03,00,57,12.00
2008,08,03,00,58,11.90
2008,08,03,00,59,11.90
2008,08,03,01,00,11.90
2008,08,03,01,01,11.90
2008,08,03,01,02,11.90
2008,08,03,01,03,11.90
2008,08,03,01,04,11.90
2008,08,03,01,05,11.90
2008,08,03,01,06,11.90
2008,08,03,01,07,11.90
2008,08,03,01,08,11.90
2008,08,03,01,09,11.80
2008,08,03,01,10,11.80
2008,08,03,01,11,11.80
2008,08,03,01,12,11.80
2008,08,03,01,13,11.80
2008,08,03,01,14,11.80
2008,08,03,01,15,11.80
2008,08,03,01,16,11.80
2008,08,03,01,17,11.80
2008,08,03,01,18,11.80
2008,08,03,01,19,11.80
2008,08,03,01,20,11.70
2008,08,03,01,21,11.70
2008,08,03,01,22,11.70
2008,08,03,01,23,11.70
2008,08,03,01,24,11.70
2008,08,03,01,25,11.70
2008,08,03,01,26,11.60
2008,08,03,01,27,11.60
2008,08,03,01,28,11.60
2008,08,03,01,29,11.60
2008,08,03,01,30,11.60
2008,08,03,01,31,11.60
2008,08,03,01,32,11.60
2008,08,03,01,33,11.60
2008,08,03,01,34,11.60
2008,08,03,01,35,11.60
2008,08,03,01,36,11.60
2008,08,03,01,37,11.60
2008,08,03,01,38,11.60
2008,08,03,01,39,11.60
2008,08,03,01,40,11.60
2008,08,03,01,41,11.60
2008,08,03,01,42,11.60
2008,08,03,01,43,11.40
2008,08,03,01,44,11.40
2008,08,03,01,45,11.40
2008,08,03,01,46,11.40
2008,08,03,01,47,11.40
2008,08,03,01,48,11.40
2008,08,03,01,49,11.40
2008,08,03,01,50,11.40
2008,08,03,01,51,11.40
2008,08,03,01,52,11.30
2008,08,03,01,53,11.30
2008,08,03,01,54,11.30
2008,08,03,01,55,11.30
2008,08,03,01,56,11.30
2008,08,03,01,57,11.20
2008,08,03,01,58,11.20
2008,08,03,01,59,11.30
2008,08,03,02,00,11.30
2008,08,03,02,01,11.30
2008,08,03,02,02,11.30
2008,08,03,02,03,11.30
2008,08,03,02,04,11.40
2008,08,03,02,05,11.40
2008,08,03,02,06,11.40
2008,08,03,02,07,11.40
2008,08,03,02,08,11.40
2008,08,03,02,09,11.40
2008,08,03,02,10,11.40
2008,08,03,02,11,11.40
2008,08,03,02,12,11.40
2008,08,03,02,13,11.40
2008,08,03,02,14,11.40
2008,08,03,02,15,11.40
2008,08,03,02,16,11.40
2008,08,03,02,17,11.40
2008,08,03,02,18,11.40
2008,08,03,02,19,11.30
2008,08,03,02,20,11.30
2008,08,03,02,21,11.30
2008,08,03,02,22,11.20
2008,08,03,02,23,11.20
2008,08,03,02,24,11.20
2008,08,03,02,25,11.10
2008,08,03,02,26,11.10
2008,08,03,02,27,11.10
2008,08,03,02,28,11.10
2008,08,03,02,29,11.00
2008,08,03,02,30,10.90
2008,08,03,02,31,10.90
2008,08,03,02,32,10.90
2008,08,03,02,33,10.90
2008,08,03,02,34,10.90
2008,08,03,02,35,10.90
2008,08,03,02,36,10.90
2008,08,03,02,37,10.90
2008,08,03,02,38,10.90
2008,08,03,02,39,10.90
2008,08,03,02,40,10.90
2008,08,03,02,41,10.90
2008,08,03,02,42,10.90
2008,08,03,02,43,10.80
2008,08,03,02,44,10.80
2008,08,03,02,45,10.80
2008,08,03,02,46,10.80
2008,08,03,02,47,10.80
2008,08,03,02,48,10.70
2008,08,03,02,49,10.70
2008,08,03,02,50,10.70
2008,08,03,02,51,10.70
2008,08,03,02,52,10.70
2008,08,03,02,53,10.70
2008,08,03,02,54,10.70
2008,08,03,02,55,10.70
2008,08,03,02,56,10.70
2008,08,03,02,57,10.70
2008,08,03,02,58,10.70
2008,08,03,02,59,10.60
2008,08,03,03,00,10.60
2008,08,03,03,01,10.60
2008,08,03,03,02,10.60
2008,08,03,03,03,10.60
2008,08,03,03,04,10.60
2008,08,03,03,05,10.40
2008,08,03,03,06,10.40
2008,08,03,03,07,10.40
2008,08,03,03,08,10.40
2008,08,03,03,09,10.30
2008,08,03,03,10,10.30
2008,08,03,03,11,10.30
2008,08,03,03,12,10.20
2008,08,03,03,13,10.20
2008,08,03,03,14,10.20
2008,08,03,03,15,10.20
2008,08,03,03,16,10.20
2008,08,03,03,17,10.20
2008,08,03,03,18,10.20
2008,08,03,03,19,10.20
2008,08,03,03,20,10.20
2008,08,03,03,21,10.20
2008,08,03,03,22,10.20
2008,08,03,03,23,10.20
2008,08,03,03,24,10.20
2008,08,03,03,25,10.20
2008,08,03,03,26,10.20
2008,08,03,03,27,10.20
2008,08,03,03,28,10.30
2008,08,03,03,29,10.30
2008,08,03,03,30,10.30
2008,08,03,03,31,10.40
2008,08,03,03,32,10.40
2008,08,03,03,33,10.40
2008,08,03,03,34,10.40
2008,08,03,03,35,10.40
2008,08,03,03,36,10.40
2008,08,03,03,37,10.40
2008,08,03,03,38,10.40
2008,08,03,03,39,10.40
2008,08,03,03,40,10.40
2008,08,03,03,41,10.40
2008,08,03,03,42,10.40
2008,08,03,03,43,10.40
2008,08,03,03,44,10.40
2008,08,03,03,45,10.40
2008,08,03,03,46,10.40
2008,08,03,03,47,10.40
2008,08,03,03,48,10.40
2008,08,03,03,49,10.40
2008,08,03,03,50,10.40
2008,08,03,03,51,10.40
2008,08,03,03,52,10.40
2008,08,03,03,53,10.30
2008,08,03,03,54,10.30
2008,08,03,03,55,10.30
2008,08,03,03,56,10.30
2008,08,03,03,57,10.30
2008,08,03,03,58,10.20
2008,08,03,03,59,10.20
2008,08,03,04,00,10.20
2008,08,03,04,01,10.20
2008,08,03,04,02,10.20
2008,08,03,04,03,10.20
2008,08,03,04,04,10.10
2008,08,03,04,05,10.10
2008,08,03,04,06,10.10
2008,08,03,04,07,10.20
2008,08,03,04,08,10.20
2008,08,03,04,09,10.20
2008,08,03,04,10,10.20
2008,08,03,04,11,10.20
2008,08,03,04,12,10.20
2008,08,03,04,13,10.20
2008,08,03,04,14,10.20
2008,08,03,04,15,10.10
2008,08,03,04,16,10.10
2008,08,03,04,17,10.10
2008,08,03,04,18,10.10
2008,08,03,04,19,10.10
2008,08,03,04,20,10.10
2008,08,03,04,21,10.10
2008,08,03,04,22,10.10
2008,08,03,04,23,10.10
2008,08,03,04,24,10.10
2008,08,03,04,25,10.10
2008,08,03,04,26,10.00
2008,08,03,04,27,9.90
2008,08,03,04,28,9.90
2008,08,03,04,29,9.90
2008,08,03,04,30,9.90
2008,08,03,04,31,9.90
2008,08,03,04,32,9.90
2008,08,03,04,33,9.90
2008,08,03,04,34,9.90
2008,08,03,04,35,9.90
2008,08,03,04,36,9.80
2008,08,03,04,37,9.90
2008,08,03,04,38,9.90
2008,08,03,04,39,9.90
2008,08,03,04,40,9.90
2008,08,03,04,41,9.90
2008,08,03,04,42,9.80
2008,08,03,04,43,9.80
2008,08,03,04,44,9.80
2008,08,03,04,45,9.80
2008,08,03,04,46,9.80
2008,08,03,04,47,9.70
2008,08,03,04,48,9.70
2008,08,03,04,49,9.70
2008,08,03,04,50,9.70
2008,08,03,04,51,9.70
2008,08,03,04,52,9.70
2008,08,03,04,53,9.70
2008,08,03,04,54,9.70
2008,08,03,04,55,9.70
2008,08,03,04,56,9.70
2008,08,03,04,57,9.70
2008,08,03,04,58,9.70
2008,08,03,04,59,9.60
2008,08,03,05,00,9.60
2008,08,03,05,01,9.60
2008,08,03,05,02,9.60
2008,08,03,05,03,9.60
2008,08,03,05,04,9.60
2008,08,03,05,05,9.60
2008,08,03,05,06,9.60
2008,08,03,05,07,9.60
2008,08,03,05,08,9.70
2008,08,03,05,09,9.70
2008,08,03,05,10,9.70
2008,08,03,05,11,9.70
2008,08,03,05,12,9.60
2008,08,03,05,13,9.60
2008,08,03,05,14,9.60
2008,08,03,05,15,9.60
2008,08,03,05,16,9.50
2008,08,03,05,17,9.50
2008,08,03,05,18,9.50
2008,08,03,05,19,9.50
2008,08,03,05,20,9.50
2008,08,03,05,21,9.50
2008,08,03,05,22,9.50
2008,08,03,05,23,9.50
2008,08,03,05,24,9.50
2008,08,03,05,25,9.50
2008,08,03,05,26,9.50
2008,08,03,05,27,9.50
2008,08,03,05,28,9.50
2008,08,03,05,29,9.50
2008,08,03,05,30,9.50
2008,08,03,05,31,9.50
2008,08,03,05,32,9.50
2008,08,03,05,33,9.50
2008,08,03,05,34,9.50
2008,08,03,05,35,9.50
2008,08,03,05,36,9.50
2008,08,03,05,37,9.50
2008,08,03,05,38,9.40
2008,08,03,05,39,9.40
2008,08,03,05,40,9.40
2008,08,03,05,41,9.40
2008,08,03,05,42,9.40
2008,08,03,05,43,9.40
2008,08,03,05,44,9.40
2008,08,03,05,45,9.40
2008,08,03,05,46,9.40
2008,08,03,05,47,9.40
2008,08,03,05,48,9.30
2008,08,03,05,49,9.30
2008,08,03,05,50,9.30
2008,08,03,05,51,9.30
2008,08,03,05,52,9.20
2008,08,03,05,53,9.20
2008,08,03,05,54,9.20
2008,08,03,05,55,9.20
2008,08,03,05,56,9.20
2008,08,03,05,57,9.20
2008,08,03,05,58,9.10
2008,08,03,05,59,9.10
2008,08,03,06,00,9.10
2008,08,03,06,01,9.10
2008,08,03,06,02,9.00
2008,08,03,06,03,9.00
2008,08,03,06,04,9.00
2008,08,03,06,05,9.00
2008,08,03,06,06,9.00
2008,08,03,06,07,9.00
2008,08,03,06,08,9.00
2008,08,03,06,09,9.10
2008,08,03,06,10,9.10
2008,08,03,06,11,9.10
2008,08,03,06,12,9.10
2008,08,03,06,13,9.10
2008,08,03,06,14,9.10
2008,08,03,06,15,9.10
2008,08,03,06,16,9.10
2008,08,03,06,17,9.10
2008,08,03,06,18,9.10
2008,08,03,06,19,9.10
2008,08,03,06,20,9.10
2008,08,03,06,21,9.10
2008,08,03,06,22,9.10
2008,08,03,06,23,9.10
2008,08,03,06,24,9.10
2008,08,03,06,25,9.10
2008,08,03,06,26,9.10
2008,08,03,06,27,9.10
2008,08,03,06,28,9.10
2008,08,03,06,29,9.10
2008,08,03,06,30,9.20
2008,08,03,06,31,9.20
2008,08,03,06,32,9.20
2008,08,03,06,33,9.20
2008,08,03,06,34,9.20
2008,08,03,06,35,9.20
2008,08,03,06,36,9.20
2008,08,03,06,37,9.30
2008,08,03,06,38,9.30
2008,08,03,06,39,9.30
2008,08,03,06,40,9.40
2008,08,03,06,41,9.40
2008,08,03,06,42,9.50
2008,08,03,06,43,9.50
2008,08,03,06,44,9.60
2008,08,03,06,45,9.60
2008,08,03,06,46,9.60
2008,08,03,06,47,9.70
2008,08,03,06,48,9.70
2008,08,03,06,49,9.70
2008,08,03,06,50,9.70
2008,08,03,06,51,9.70
2008,08,03,06,52,9.70
2008,08,03,06,53,9.80
2008,08,03,06,54,9.80
2008,08,03,06,55,9.80
2008,08,03,06,56,9.90
2008,08,03,06,57,9.90
2008,08,03,06,58,9.90
2008,08,03,06,59,9.90
2008,08,03,07,00,9.90
2008,08,03,07,01,10.10
2008,08,03,07,02,10.10
2008,08,03,07,03,10.10
2008,08,03,07,04,10.20
2008,08,03,07,05,10.20
2008,08,03,07,06,10.30
2008,08,03,07,07,10.30
2008,08,03,07,08,10.40
2008,08,03,07,09,10.40
2008,08,03,07,10,10.40
2008,08,03,07,11,10.50
2008,08,03,07,12,10.60
2008,08,03,07,13,10.60
2008,08,03,07,14,10.70
2008,08,03,07,15,10.70
2008,08,03,07,16,10.80
2008,08,03,07,17,10.80
2008,08,03,07,18,10.90
2008,08,03,07,19,10.90
2008,08,03,07,20,10.90
2008,08,03,07,21,11.00
2008,08,03,07,22,11.10
2008,08,03,07,23,11.10
2008,08,03,07,24,11.20
2008,08,03,07,25,11.30
2008,08,03,07,26,11.40
2008,08,03,07,27,11.40
2008,08,03,07,28,11.50
2008,08,03,07,29,11.60
2008,08,03,07,30,11.60
2008,08,03,07,31,11.60
2008,08,03,07,32,11.70
2008,08,03,07,33,11.80
2008,08,03,07,34,11.80
2008,08,03,07,35,11.80
2008,08,03,07,36,11.90
2008,08,03,07,37,11.90
2008,08,03,07,38,12.00
2008,08,03,07,39,12.00
2008,08,03,07,40,12.00
2008,08,03,07,41,12.10
2008,08,03,07,42,12.10
2008,08,03,07,43,12.10
2008,08,03,07,44,12.20
2008,08,03,07,45,12.20
2008,08,03,07,46,12.30
2008,08,03,07,47,12.30
2008,08,03,07,48,12.30
2008,08,03,07,49,12.40
2008,08,03,07,50,12.40
2008,08,03,07,51,12.40
2008,08,03,07,52,12.50
2008,08,03,07,53,12.50
2008,08,03,07,54,12.60
2008,08,03,07,55,12.60
2008,08,03,07,56,12.60
2008,08,03,07,57,12.70
2008,08,03,07,58,12.80
2008,08,03,07,59,12.80
2008,08,03,08,00,12.80
2008,08,03,08,01,12.90
2008,08,03,08,02,13.00
2008,08,03,08,03,13.00
2008,08,03,08,04,13.10
2008,08,03,08,05,13.20
2008,08,03,08,06,13.30
2008,08,03,08,07,13.50
2008,08,03,08,08,13.60
2008,08,03,08,09,13.70
2008,08,03,08,10,13.80
2008,08,03,08,11,13.90
2008,08,03,08,12,14.00
2008,08,03,08,13,14.10
2008,08,03,08,14,14.20
2008,08,03,08,15,14.20
2008,08,03,08,16,14.30
2008,08,03,08,17,14.40
2008,08,03,08,18,14.50
2008,08,03,08,19,14.60
2008,08,03,08,20,14.60
2008,08,03,08,21,14.60
2008,08,03,08,22,14.60
2008,08,03,08,23,14.70
2008,08,03,08,24,14.80
2008,08,03,08,25,14.80
2008,08,03,08,26,14.90
2008,08,03,08,27,15.00
2008,08,03,08,28,15.10
2008,08,03,08,29,15.10
2008,08,03,08,30,15.20
2008,08,03,08,31,15.20
2008,08,03,08,32,15.30
2008,08,03,08,33,15.30
2008,08,03,08,34,15.30
2008,08,03,08,35,15.30
2008,08,03,08,36,15.30
2008,08,03,08,37,15.30
2008,08,03,08,38,15.30
2008,08,03,08,39,15.30
2008,08,03,08,40,15.30
2008,08,03,08,41,15.30
2008,08,03,08,42,15.30
2008,08,03,08,43,15.30
2008,08,03,08,44,15.30
2008,08,03,08,45,15.30
2008,08,03,08,46,15.40
2008,08,03,08,47,15.50
2008,08,03,08,48,15.60
2008,08,03,08,49,15.60
2008,08,03,08,50,15.80
2008,08,03,08,51,15.80
2008,08,03,08,52,15.80
2008,08,03,08,53,15.90
2008,08,03,08,54,16.00
2008,08,03,08,55,16.20
2008,08,03,08,56,16.30
2008,08,03,08,57,16.40
2008,08,03,08,58,16.60
2008,08,03,08,59,16.70
2008,08,03,09,00,16.70
2008,08,03,09,01,16.80
2008,08,03,09,02,16.70
2008,08,03,09,03,16.70
2008,08,03,09,04,16.60
2008,08,03,09,05,16.40
2008,08,03,09,06,16.50
2008,08,03,09,07,16.60
2008,08,03,09,08,16.60
2008,08,03,09,09,16.60
2008,08,03,09,10,16.60
2008,08,03,09,11,16.60
2008,08,03,09,12,16.60
2008,08,03,09,13,16.40
2008,08,03,09,14,16.40
2008,08,03,09,15,16.40
2008,08,03,09,16,16.40
2008,08,03,09,17,16.40
2008,08,03,09,18,16.40
2008,08,03,09,19,16.40
2008,08,03,09,20,16.40
2008,08,03,09,21,16.40
2008,08,03,09,22,16.30
2008,08,03,09,23,16.30
2008,08,03,09,24,16.30
2008,08,03,09,25,16.30
2008,08,03,09,26,16.30
2008,08,03,09,27,16.40
2008,08,03,09,28,16.40
2008,08,03,09,29,16.40
2008,08,03,09,30,16.50
2008,08,03,09,31,16.60
2008,08,03,09,32,16.70
2008,08,03,09,33,16.70
2008,08,03,09,34,16.70
2008,08,03,09,35,16.80
2008,08,03,09,36,16.80
2008,08,03,09,37,16.80
2008,08,03,09,38,16.80
2008,08,03,09,39,16.70
2008,08,03,09,40,16.70
2008,08,03,09,41,16.70
2008,08,03,09,42,16.80
2008,08,03,09,43,16.90
2008,08,03,09,44,17.00
2008,08,03,09,45,17.20
2008,08,03,09,46,17.40
2008,08,03,09,47,17.40
2008,08,03,09,48,17.40
2008,08,03,09,49,17.40
2008,08,03,09,50,17.30
2008,08,03,09,51,17.30
2008,08,03,09,52,17.20
2008,08,03,09,53,17.10
2008,08,03,09,54,17.10
2008,08,03,09,55,17.20
2008,08,03,09,56,17.30
2008,08,03,09,57,17.30
2008,08,03,09,58,17.30
2008,08,03,09,59,17.40
2008,08,03,10,00,17.50
2008,08,03,10,01,17.60
2008,08,03,10,02,17.50
2008,08,03,10,03,17.40
2008,08,03,10,04,17.30
2008,08,03,10,05,17.30
2008,08,03,10,06,17.30
2008,08,03,10,07,17.30
2008,08,03,10,08,17.30
2008,08,03,10,09,17.30
2008,08,03,10,10,17.30
2008,08,03,10,11,17.40
2008,08,03,10,12,17.50
2008,08,03,10,13,17.50
2008,08,03,10,14,17.60
2008,08,03,10,15,17.60
2008,08,03,10,16,17.50
2008,08,03,10,17,17.70
2008,08,03,10,18,17.80
2008,08,03,10,19,17.90
2008,08,03,10,20,17.90
2008,08,03,10,21,17.80
2008,08,03,10,22,17.70
2008,08,03,10,23,17.60
2008,08,03,10,24,17.40
2008,08,03,10,25,17.30
2008,08,03,10,26,17.30
2008,08,03,10,27,17.40
2008,08,03,10,28,17.40
2008,08,03,10,29,17.30
2008,08,03,10,30,17.30
2008,08,03,10,31,17.10
2008,08,03,10,32,17.10
2008,08,03,10,33,17.20
2008,08,03,10,34,17.30
2008,08,03,10,35,17.30
2008,08,03,10,36,17.30
2008,08,03,10,37,17.30
2008,08,03,10,38,17.40
2008,08,03,10,39,17.40
2008,08,03,10,40,17.30
2008,08,03,10,41,17.30
2008,08,03,10,42,17.30
2008,08,03,10,43,17.50
2008,08,03,10,44,17.50
2008,08,03,10,45,17.60
2008,08,03,10,46,17.70
2008,08,03,10,47,17.80
2008,08,03,10,48,17.80
2008,08,03,10,49,17.90
2008,08,03,10,50,17.80
2008,08,03,10,51,17.70
2008,08,03,10,52,17.60
2008,08,03,10,53,17.70
2008,08,03,10,54,17.70
2008,08,03,10,55,17.70
2008,08,03,10,56,17.80
2008,08,03,10,57,17.90
2008,08,03,10,58,18.10
2008,08,03,10,59,18.20
2008,08,03,11,00,18.30
2008,08,03,11,01,18.30
2008,08,03,11,02,18.30
2008,08,03,11,03,18.40
2008,08,03,11,04,18.40
2008,08,03,11,05,18.40
2008,08,03,11,06,18.20
2008,08,03,11,07,17.90
2008,08,03,11,08,17.90
2008,08,03,11,09,17.90
2008,08,03,11,10,18.10
2008,08,03,11,11,18.10
2008,08,03,11,12,18.20
2008,08,03,11,13,18.20
2008,08,03,11,14,18.20
2008,08,03,11,15,18.20
2008,08,03,11,16,18.20
2008,08,03,11,17,18.20
2008,08,03,11,18,18.30
2008,08,03,11,19,18.30
2008,08,03,11,20,18.20
2008,08,03,11,21,18.20
2008,08,03,11,22,18.30
2008,08,03,11,23,18.30
2008,08,03,11,24,18.40
2008,08,03,11,25,18.50
2008,08,03,11,26,18.60
2008,08,03,11,27,18.60
2008,08,03,11,28,18.50
2008,08,03,11,29,18.50
2008,08,03,11,30,18.50
2008,08,03,11,31,18.40
2008,08,03,11,32,18.40
2008,08,03,11,33,18.50
2008,08,03,11,34,18.50
2008,08,03,11,35,18.30
2008,08,03,11,36,18.20
2008,08,03,11,37,18.20
2008,08,03,11,38,18.20
2008,08,03,11,39,18.20
2008,08,03,11,40,18.20
2008,08,03,11,41,18.30
2008,08,03,11,42,18.40
2008,08,03,11,43,18.60
2008,08,03,11,44,18.70
2008,08,03,11,45,18.70
2008,08,03,11,46,18.50
2008,08,03,11,47,18.40
2008,08,03,11,48,18.30
2008,08,03,11,49,18.20
2008,08,03,11,50,18.10
2008,08,03,11,51,18.10
2008,08,03,11,52,18.10
2008,08,03,11,53,18.20
2008,08,03,11,54,18.20
2008,08,03,11,55,18.20
2008,08,03,11,56,18.30
2008,08,03,11,57,18.50
2008,08,03,11,58,18.50
2008,08,03,11,59,18.40
2008,08,03,12,00,18.30
2008,08,03,12,01,18.30
2008,08,03,12,02,18.30
2008,08,03,12,03,18.30
2008,08,03,12,04,18.20
2008,08,03,12,05,18.20
2008,08,03,12,06,18.50
2008,08,03,12,07,18.60
2008,08,03,12,08,18.70
2008,08,03,12,09,18.70
2008,08,03,12,10,18.80
2008,08,03,12,11,18.80
2008,08,03,12,12,18.90
2008,08,03,12,13,19.00
2008,08,03,12,14,19.10
2008,08,03,12,15,19.30
2008,08,03,12,16,19.40
2008,08,03,12,17,19.60
2008,08,03,12,18,19.70
2008,08,03,12,19,19.80
2008,08,03,12,20,20.00
2008,08,03,12,21,20.20
2008,08,03,12,22,20.20
2008,08,03,12,23,20.20
2008,08,03,12,24,20.30
2008,08,03,12,25,20.40
2008,08,03,12,26,20.50
2008,08,03,12,27,20.70
2008,08,03,12,28,20.60
2008,08,03,12,29,20.30
2008,08,03,12,30,19.90
2008,08,03,12,31,19.80
2008,08,03,12,32,19.60
2008,08,03,12,33,19.40
2008,08,03,12,34,19.20
2008,08,03,12,35,19.10
2008,08,03,12,36,19.10
2008,08,03,12,37,19.10
2008,08,03,12,38,19.30
2008,08,03,12,39,19.30
2008,08,03,12,40,19.40
2008,08,03,12,41,19.50
2008,08,03,12,42,19.60
2008,08,03,12,43,19.60
2008,08,03,12,44,19.50
2008,08,03,12,45,19.40
2008,08,03,12,46,19.30
2008,08,03,12,47,19.30
2008,08,03,12,48,19.10
2008,08,03,12,49,19.10
2008,08,03,12,50,19.10
2008,08,03,12,51,19.20
2008,08,03,12,52,19.20
2008,08,03,12,53,19.10
2008,08,03,12,54,19.10
2008,08,03,12,55,19.10
2008,08,03,12,56,19.20
2008,08,03,12,57,19.20
2008,08,03,12,58,19.30
2008,08,03,12,59,19.30
2008,08,03,13,00,19.20
2008,08,03,13,01,19.30
2008,08,03,13,02,19.50
2008,08,03,13,03,19.50
2008,08,03,13,04,19.40
2008,08,03,13,05,19.30
2008,08,03,13,06,19.20
2008,08,03,13,07,19.10
2008,08,03,13,08,18.90
2008,08,03,13,09,19.00
2008,08,03,13,10,19.20
2008,08,03,13,11,19.30
2008,08,03,13,12,19.20
2008,08,03,13,13,19.10
2008,08,03,13,14,19.10
2008,08,03,13,15,19.10
2008,08,03,13,16,19.10
2008,08,03,13,17,19.20
2008,08,03,13,18,19.30
2008,08,03,13,19,19.30
2008,08,03,13,20,19.30
2008,08,03,13,21,19.40
2008,08,03,13,22,19.30
2008,08,03,13,23,19.40
2008,08,03,13,24,19.40
2008,08,03,13,25,19.40
2008,08,03,13,26,19.40
2008,08,03,13,27,19.70
2008,08,03,13,28,19.90
2008,08,03,13,29,20.00
2008,08,03,13,30,20.10
2008,08,03,13,31,19.90
2008,08,03,13,32,20.10
2008,08,03,13,33,20.20
2008,08,03,13,34,20.20
2008,08,03,13,35,20.10
2008,08,03,13,36,19.90
2008,08,03,13,37,20.00
2008,08,03,13,38,20.10
2008,08,03,13,39,20.20
2008,08,03,13,40,20.20
2008,08,03,13,41,20.20
2008,08,03,13,42,20.20
2008,08,03,13,43,20.20
2008,08,03,13,44,20.00
2008,08,03,13,45,19.90
2008,08,03,13,46,19.70
2008,08,03,13,47,19.50
2008,08,03,13,48,19.50
2008,08,03,13,49,19.60
2008,08,03,13,50,19.70
2008,08,03,13,51,19.70
2008,08,03,13,52,19.80
2008,08,03,13,53,19.70
2008,08,03,13,54,19.70
2008,08,03,13,55,19.60
2008,08,03,13,56,19.60
2008,08,03,13,57,19.70
2008,08,03,13,58,19.70
2008,08,03,13,59,19.90
2008,08,03,14,00,20.00
2008,08,03,14,01,20.10
2008,08,03,14,02,20.20
2008,08,03,14,03,20.20
2008,08,03,14,04,20.10
2008,08,03,14,05,20.10
2008,08,03,14,06,20.10
2008,08,03,14,07,20.20
2008,08,03,14,08,20.30
2008,08,03,14,09,20.50
2008,08,03,14,10,20.60
2008,08,03,14,11,20.50
2008,08,03,14,12,20.40
2008,08,03,14,13,20.40
2008,08,03,14,14,20.30
2008,08,03,14,15,20.10
2008,08,03,14,16,20.00
2008,08,03,14,17,20.00
2008,08,03,14,18,20.10
2008,08,03,14,19,20.00
2008,08,03,14,20,19.90
2008,08,03,14,21,19.80
2008,08,03,14,22,19.80
2008,08,03,14,23,19.90
2008,08,03,14,24,19.90
2008,08,03,14,25,20.00
2008,08,03,14,26,20.20
2008,08,03,14,27,20.30
2008,08,03,14,28,20.20
2008,08,03,14,29,20.20
2008,08,03,14,30,20.20
2008,08,03,14,31,20.30
2008,08,03,14,32,20.40
2008,08,03,14,33,20.50
2008,08,03,14,34,20.50
2008,08,03,14,35,20.40
2008,08,03,14,36,20.20
2008,08,03,14,37,20.20
2008,08,03,14,38,20.30
2008,08,03,14,39,20.30
2008,08,03,14,40,20.30
2008,08,03,14,41,20.20
2008,08,03,14,42,20.20
2008,08,03,14,43,20.20
2008,08,03,14,44,20.20
2008,08,03,14,45,20.40
2008,08,03,14,46,20.40
2008,08,03,14,47,20.30
2008,08,03,14,48,20.40
2008,08,03,14,49,20.50
2008,08,03,14,50,20.60
2008,08,03,14,51,20.70
2008,08,03,14,52,20.70
2008,08,03,14,53,20.70
2008,08,03,14,54,20.80
2008,08,03,14,55,20.90
2008,08,03,14,56,20.80
2008,08,03,14,57,20.70
2008,08,03,14,58,20.60
2008,08,03,14,59,20.60
2008,08,03,15,00,20.70
2008,08,03,15,01,20.70
2008,08,03,15,02,20.60
2008,08,03,15,03,20.50
2008,08,03,15,04,20.60
2008,08,03,15,05,20.60
2008,08,03,15,06,20.70
2008,08,03,15,07,20.80
2008,08,03,15,08,20.90
2008,08,03,15,09,21.00
2008,08,03,15,10,20.90
2008,08,03,15,11,20.80
2008,08,03,15,12,20.80
2008,08,03,15,13,20.80
2008,08,03,15,14,20.80
2008,08,03,15,15,20.70
2008,08,03,15,16,20.70
2008,08,03,15,17,20.60
2008,08,03,15,18,20.70
2008,08,03,15,19,20.60
2008,08,03,15,20,20.50
2008,08,03,15,21,20.70
2008,08,03,15,22,20.50
2008,08,03,15,23,20.40
2008,08,03,15,24,20.50
2008,08,03,15,25,20.70
2008,08,03,15,26,20.80
2008,08,03,15,27,20.90
2008,08,03,15,28,20.90
2008,08,03,15,29,20.70
2008,08,03,15,30,20.80
2008,08,03,15,31,20.90
2008,08,03,15,32,20.90
2008,08,03,15,33,21.00
2008,08,03,15,34,21.10
2008,08,03,15,35,21.20
2008,08,03,15,36,21.30
2008,08,03,15,37,21.10
2008,08,03,15,38,20.90
2008,08,03,15,39,20.80
2008,08,03,15,40,20.80
2008,08,03,15,41,20.90
2008,08,03,15,42,21.00
2008,08,03,15,43,20.90
2008,08,03,15,44,20.80
2008,08,03,15,45,20.50
2008,08,03,15,46,20.50
2008,08,03,15,47,20.60
2008,08,03,15,48,20.70
2008,08,03,15,49,20.70
2008,08,03,15,50,20.60
2008,08,03,15,51,20.60
2008,08,03,15,52,20.80
2008,08,03,15,53,20.90
2008,08,03,15,54,21.00
2008,08,03,15,55,21.10
2008,08,03,15,56,21.30
2008,08,03,15,57,21.30
2008,08,03,15,58,21.30
2008,08,03,15,59,21.20
2008,08,03,16,00,21.20
2008,08,03,16,01,21.10
2008,08,03,16,02,20.90
2008,08,03,16,03,20.80
2008,08,03,16,04,20.80
2008,08,03,16,05,20.80
2008,08,03,16,06,20.80
2008,08,03,16,07,20.90
2008,08,03,16,08,20.90
2008,08,03,16,09,20.90
2008,08,03,16,10,21.00
2008,08,03,16,11,21.00
2008,08,03,16,12,21.00
2008,08,03,16,13,20.80
2008,08,03,16,14,20.70
2008,08,03,16,15,20.70
2008,08,03,16,16,20.80
2008,08,03,16,17,20.80
2008,08,03,16,18,20.90
2008,08,03,16,19,20.90
2008,08,03,16,20,20.90
2008,08,03,16,21,21.00
2008,08,03,16,22,21.00
2008,08,03,16,23,21.00
2008,08,03,16,24,20.90
2008,08,03,16,25,21.00
2008,08,03,16,26,21.00
2008,08,03,16,27,21.00
2008,08,03,16,28,20.90
2008,08,03,16,29,20.80
2008,08,03,16,30,20.70
2008,08,03,16,31,20.70
2008,08,03,16,32,20.50
2008,08,03,16,33,20.50
2008,08,03,16,34,20.30
2008,08,03,16,35,20.30
2008,08,03,16,36,20.30
2008,08,03,16,37,20.40
2008,08,03,16,38,20.60
2008,08,03,16,39,20.60
2008,08,03,16,40,20.70
2008,08,03,16,41,20.70
2008,08,03,16,42,20.80
2008,08,03,16,43,20.80
2008,08,03,16,44,21.00
2008,08,03,16,45,21.00
2008,08,03,16,46,21.20
2008,08,03,16,47,21.30
2008,08,03,16,48,21.40
2008,08,03,16,49,21.40
2008,08,03,16,50,21.50
2008,08,03,16,51,21.60
2008,08,03,16,52,21.60
2008,08,03,16,53,21.60
2008,08,03,16,54,21.60
2008,08,03,16,55,21.60
2008,08,03,16,56,21.60
2008,08,03,16,57,21.60
2008,08,03,16,58,21.60
2008,08,03,16,59,21.60
2008,08,03,17,00,21.60
2008,08,03,17,01,21.60
2008,08,03,17,02,21.60
2008,08,03,17,03,21.60
2008,08,03,17,04,21.80
2008,08,03,17,05,21.90
2008,08,03,17,06,22.00
2008,08,03,17,07,22.10
2008,08,03,17,08,22.20
2008,08,03,17,09,22.30
2008,08,03,17,10,22.50
2008,08,03,17,11,22.60
2008,08,03,17,12,22.60
2008,08,03,17,13,22.60
2008,08,03,17,14,22.60
2008,08,03,17,15,22.50
2008,08,03,17,16,22.30
2008,08,03,17,17,22.30
2008,08,03,17,18,22.30
2008,08,03,17,19,22.30
2008,08,03,17,20,22.30
2008,08,03,17,21,22.30
2008,08,03,17,22,22.30
2008,08,03,17,23,22.30
2008,08,03,17,24,22.30
2008,08,03,17,25,22.20
2008,08,03,17,26,22.20